Location: *
(55.6049°S, 142.1985°W)
Time: 01:17:06
(UTC+00:00)

Cosmos 1633 - Pass Details

Date: 12 May 2021
Orbit: 460 x 478 km, 82.5° (Epoch: 23 June)

Event Time Altitude Azimuth Distance (km) Brightness Sun altitude
Exits shadow 16:19:55 - 211° (SSW) 2,139 5.4 -7.6°
Reaches altitude 10° 16:21:20 10° 223° (SW) 1,691 4.8 -7.4°
Maximum altitude 16:23:50 18° 266° (W) 1,284 4.1 -7.1°
Drops below altitude 10° 16:26:20 10° 309° (NW) 1,679 5.0 -6.8°
Sets 16:28:55 0° 328° (NNW) 2,551 6.1 -6.4°
